Weather History for Punta Gorda, FL

Change the Weather History Date:

Saturday, February 25, 2012

  Actual Average Record
Temperature  
Mean Temperature 70 °F -  
Max Temperature 77 °F 75 °F 86 °F (2013)
Min Temperature 62 °F 53 °F 44 °F (2002)
Cooling Degree Days 4    
Growing Degree Days 20 (Base 50)    
Moisture  
Dew Point 57 °F    
Average Humidity 68    
Maximum Humidity 96    
Minimum Humidity 38    
Precipitation  
Precipitation 0.00 in - - ()
Sea Level Pressure  
Sea Level Pressure 30.14 in    
Wind  
Wind Speed 8 mph (NE)    
Max Wind Speed 16 mph    
Max Gust Speed 21 mph    
Visibility 8 miles    
Events      
Averages and records for this station are not official NWS values.
T = Trace of Precipitation, MM = Missing Value Source: NWS Daily Summary

Daily Weather History Graph

Daily Weather History Graph

Search for Another Location

Airport:

Trip Planner

Search our weather history database for the weather conditions in past years. The results will help you decide how hot, cold, wet, or windy it might be!

Date:

Astronomy

Feb. 25, 2012 Rise Set
Actual Time 6:56 AM EST 6:26 PM EST
Civil Twilight 6:32 AM EST 6:49 PM EST
Nautical Twilight 6:05 AM EST 7:16 PM EST
Astronomical Twilight 5:38 AM EST 7:43 PM EST
Moon 8:45 AM EST (2/25) 9:56 PM EST (2/25)
Length of Visible Light 12h 17m
Length of Day
11h 30m
Waxing Crescent, 13% of the Moon is Illuminated
Feb 25
Waxing Crescent
Feb 29
First Quarter
Mar 8
Full
Mar 14
Last Quarter
Mar 22
New

Hourly Weather History & Observations

Time (EST) Temp. Dew Point Humidity Pressure Visibility Wind Dir Wind Speed Gust Speed Precip Events Conditions
12:53 AM 71.1 °F 69.1 °F 93% 30.06 in 7.0 mi SW 4.6 mph - N/A   Scattered Clouds
1:53 AM 72.0 °F 69.1 °F 91% 30.05 in 8.0 mi SW 5.8 mph - N/A   Mostly Cloudy
2:53 AM 71.1 °F 69.1 °F 93% 30.04 in 8.0 mi SW 3.5 mph - N/A   Mostly Cloudy
4:12 AM 68.0 °F 66.2 °F 94% 30.04 in 2.0 mi SSW 3.5 mph - N/A   Clear
4:23 AM 68.0 °F 66.2 °F 94% 30.04 in 5.0 mi Calm Calm - N/A   Clear
4:53 AM 68.0 °F 66.9 °F 96% 30.06 in 4.0 mi Calm Calm - N/A   Mostly Cloudy
5:12 AM 69.8 °F 68.0 °F 94% 30.06 in 8.0 mi West 10.4 mph 16.1 mph N/A   Overcast
5:38 AM 71.6 °F 69.8 °F 94% 30.07 in 8.0 mi West 3.5 mph - N/A   Mostly Cloudy
5:45 AM 71.6 °F 69.8 °F 94% 30.07 in 8.0 mi West 4.6 mph - N/A   Scattered Clouds
5:53 AM 72.0 °F 69.1 °F 91% 30.08 in 7.0 mi West 4.6 mph - N/A   Scattered Clouds
6:02 AM 71.6 °F 69.8 °F 94% 30.08 in 6.0 mi WNW 6.9 mph - N/A   Mostly Cloudy
7:53 AM 68.0 °F 64.9 °F 90% 30.15 in 4.0 mi North 11.5 mph - N/A   Overcast
8:36 AM 66.2 °F 60.8 °F 83% 30.17 in 10.0 mi North 13.8 mph - N/A   Mostly Cloudy
8:53 AM 66.9 °F 59.0 °F 76% 30.18 in 10.0 mi North 15.0 mph - N/A   Mostly Cloudy
9:19 AM 69.8 °F 59.0 °F 68% 30.19 in 10.0 mi NNE 12.7 mph - N/A   Scattered Clouds
9:53 AM 71.1 °F 57.0 °F 61% 30.19 in 10.0 mi NNE 12.7 mph - N/A   Clear
10:53 AM 73.9 °F 55.0 °F 52% 30.18 in 10.0 mi NE 12.7 mph - N/A   Clear
11:53 AM 75.0 °F 54.0 °F 48% 30.18 in 10.0 mi NNE 11.5 mph - N/A   Mostly Cloudy
12:53 PM 77.0 °F 54.0 °F 45% 30.17 in 10.0 mi NE 12.7 mph - N/A   Mostly Cloudy
1:53 PM 75.0 °F 50.0 °F 41% 30.15 in 10.0 mi NE 15.0 mph - N/A   Mostly Cloudy
2:53 PM 73.9 °F 50.0 °F 43% 30.14 in 10.0 mi ENE 15.0 mph 18.4 mph N/A   Overcast
3:53 PM 73.0 °F 46.0 °F 38% 30.14 in 10.0 mi East 13.8 mph - N/A   Overcast
4:53 PM 72.0 °F 46.0 °F 40% 30.14 in 10.0 mi East 12.7 mph - N/A   Overcast
5:53 PM 70.0 °F 48.9 °F 47% 30.16 in 10.0 mi East 11.5 mph - N/A   Overcast
6:53 PM 68.0 °F 48.9 °F 50% 30.18 in 10.0 mi ENE 13.8 mph - N/A   Overcast
7:53 PM 66.0 °F 46.9 °F 50% 30.21 in 10.0 mi ENE 16.1 mph - N/A   Overcast
8:53 PM 64.9 °F 46.0 °F 50% 30.22 in 10.0 mi East 12.7 mph 20.7 mph N/A   Overcast
9:53 PM 63.0 °F 46.0 °F 54% 30.24 in 10.0 mi ENE 12.7 mph - N/A   Overcast
10:07 PM 62.6 °F 44.6 °F 52% 30.24 in 10.0 mi East 13.8 mph - N/A   Overcast
10:53 PM 62.1 °F 44.1 °F 52% 30.24 in 10.0 mi ENE 12.7 mph - N/A   Overcast
11:53 PM 62.1 °F 44.1 °F 52% 30.24 in 10.0 mi ENE 15.0 mph - N/A   Overcast